[[{"header":{"parameterUnit":"m.s-1","parameterCategory":1,"la1":30.2991,"la2":30.254,"lo1":-89.0895,"lo2":-89.0444,"dy":0.0017,"dx":0.0017,"nx":28,"ny":28,"refTime":"2024-12-02T03:00:00:Z","depth":0,"parameterNumber":2,"parameterNumberName":"U-component_of_WINDS"},"data":[0,0,0,0,0,0,0,0,0,0,0,0,0,0,0,0,0,0,0,0,0,0,0,0,0,0,0,0,0,0,0,0,0,0,0,0,0,0,0,0,0,0,0,0,0,0,0,0,0,0,0,0,0,0,0,0,0,0,-1.5706,-1.5705,0,-1.5702,-1.5702,-1.5702,-1.5664,-1.5663,-1.5662,-1.5661,-1.5659,-1.5659,-1.566,0,0,0,0,0,0,0,0,0,0,0,0,0,-1.5678,-1.5679,-1.5706,-1.5705,-1.5705,-1.5702,-1.5702,-1.5702,-1.5664,-1.5663,-1.5661,-1.566,-1.5658,-1.5659,-1.566,0,0,0,0,0,0,0,0,0,0,0,0,0,-1.5684,-1.5679,-1.5706,-1.5686,-1.5684,-1.5702,-1.5702,-1.5702,-1.5664,-1.5663,-1.5661,-1.566,-1.5658,-1.5659,-1.566,-1.5698,0,0,-1.5664,-1.5665,0,0,0,0,0,0,0,0,-1.5684,-1.5685,-1.5689,-1.5687,-1.5685,-1.5682,-1.5692,-1.5701,-1.5664,-1.5672,-1.5661,-1.5659,-1.5668,-1.5668,-1.5671,-1.5698,-1.5698,-1.5664,-1.5665,-1.5666,-1.5666,0,0,0,0,0,0,0,-1.5684,-1.5685,-1.5704,-1.5689,-1.5687,-1.5677,-1.5676,-1.5694,-1.5678,-1.5671,-1.5668,-1.5668,-1.5666,-1.5669,-1.567,-1.5698,-1.5664,-1.5666,-1.5666,-1.5667,-1.5755,-1.5757,0,0,0,0,0,0,-1.5686,-1.5685,-1.5704,-1.5704,-1.5681,-1.5679,-1.5678,-1.5684,-1.5678,-1.5675,-1.5669,-1.5666,-1.5668,-1.5669,-1.567,-1.5714,-1.5666,-1.5667,-1.5668,-1.5754,-1.5756,-1.5757,0,0,0,0,0,0,-1.5685,-1.5688,-1.5705,-1.5694,-1.5695,-1.5681,-1.5688,-1.5685,-1.5688,-1.5676,-1.5674,-1.5676,-1.5667,-1.5668,-1.5691,-1.5713,-1.5668,-1.5669,-1.5752,-1.5754,-1.5756,-1.5801,0,0,0,0,0,0,-1.5685,-1.5688,-1.5702,-1.5695,-1.5696,-1.5726,-1.569,-1.5686,-1.5691,-1.5686,-1.5681,-1.5679,-1.5666,-1.5689,-1.5692,-1.5714,-1.567,-1.575,-1.5753,-1.5756,-1.5798,-1.5805,-1.5811,0,0,0,0,0,-1.5684,-1.5715,-1.5703,-1.5706,-1.5713,-1.5727,-1.5728,-1.5712,-1.5692,-1.5707,-1.5699,-1.5679,-1.571,-1.5692,-1.5695,-1.5717,-1.5748,-1.5752,-1.5755,-1.5795,-1.5803,-1.5811,0,0,0,0,0,0,-1.5726,-1.5714,-1.57,-1.573,-1.573,-1.572,-1.5738,-1.5721,-1.5727,-1.5723,-1.5703,-1.5702,-1.5728,-1.5725,-1.5705,-1.5753,-1.5726,-1.573,-1.5755,-1.5763,-1.5769,-1.577,-1.5671,0,0,0,0,0,-1.5739,-1.5751,-1.5739,-1.5766,-1.5767,-1.5752,-1.5758,-1.5745,-1.5744,-1.5744,-1.5738,-1.5739,-1.5748,-1.5755,-1.5763,-1.5797,-1.5795,-1.5813,-1.582,-1.5825,-1.583,-1.5847,-1.5855,-1.5769,-1.5769,-1.5769,0,0,-1.5765,-1.576,-1.5769,-1.5775,-1.5773,-1.5786,-1.5753,-1.5768,-1.5778,-1.5747,-1.5768,-1.5764,-1.5763,-1.5791,-1.5803,-1.5789,-1.5853,-1.583,-1.5834,-1.5836,-1.5852,-1.586,-1.5867,-1.5771,-1.5771,-1.5771,0,0,-1.582,-1.5817,-1.5839,-1.5838,-1.5836,-1.5826,-1.5832,-1.5825,-1.5821,-1.5841,-1.5819,-1.583,-1.5847,-1.5847,-1.5849,-1.5904,-1.5886,-1.5907,-1.5941,-1.5959,-1.5966,-1.5972,-1.5992,-1.5999,-1.5911,-1.5911,-1.5911,0,-1.5853,-1.5872,-1.5853,-1.587,-1.5873,-1.5845,-1.5868,-1.5868,-1.5869,-1.5872,-1.5856,-1.5876,-1.5874,-1.5902,-1.5915,-1.5918,-1.5923,-1.5908,-1.5966,-1.5972,-1.5977,-1.5996,-1.6004,-1.5914,-1.5913,-1.5913,-1.5913,0,-1.5913,-1.5926,-1.5945,-1.5946,-1.5951,-1.5971,-1.5955,-1.5963,-1.5949,-1.5941,-1.5963,-1.5958,-1.5965,-1.5971,-1.5958,-1.5997,-1.5988,-1.597,-1.5942,-1.5988,-1.6006,-1.6013,-1.5917,-1.5916,-1.5916,-1.5915,0,0,-1.5996,-1.5985,-1.5992,-1.5993,-1.5988,-1.5998,-1.6016,-1.6022,-1.603,-1.6031,-1.6046,-1.6061,-1.6043,-1.6046,-1.6033,-1.6048,-1.6092,-1.6027,-1.6027,-1.604,-1.6135,-1.615,-1.6159,-1.608,-1.6081,-1.6082,-1.6136,0,-1.6049,-1.608,-1.6063,-1.6096,-1.6108,-1.6081,-1.6097,-1.6096,-1.6088,-1.6098,-1.6089,-1.6101,-1.6076,-1.6078,-1.6091,-1.6084,-1.6111,-1.6079,-1.6094,-1.6095,-1.6096,-1.6168,-1.6183,-1.6234,-1.6142,-1.6143,-1.6144,0,-1.6116,-1.612,-1.6154,-1.6147,-1.6151,-1.6166,-1.617,-1.6179,-1.6177,-1.6171,-1.6174,-1.6157,-1.6174,-1.6146,-1.617,-1.6149,-1.6154,-1.6151,-1.6153,-1.6154,-1.6123,-1.6172,-1.625,-1.6258,-1.6155,-1.6154,-1.6153,0,-1.6173,-1.6187,-1.6209,-1.621,-1.6202,-1.6213,-1.621,-1.6207,-1.6212,-1.6215,-1.6218,-1.6224,-1.6228,-1.6233,-1.6218,-1.6198,-1.6244,-1.6215,-1.624,-1.624,-1.6252,-1.6251,-1.6332,-1.6253,-1.6253,-1.6253,-1.6253,0,-1.6235,-1.6257,-1.6235,-1.6249,-1.6273,-1.6253,-1.6277,-1.6271,-1.6269,-1.6281,-1.6258,-1.627,-1.6249,-1.6259,-1.6248,-1.627,-1.6271,-1.6267,-1.6264,-1.627,-1.627,-1.6273,-1.627,-1.6255,-1.6255,-1.6254,-1.6254,0,-1.6304,-1.629,-1.6312,-1.6302,-1.63,-1.6319,-1.631,-1.6323,-1.6313,-1.6329,-1.6332,-1.6318,-1.6328,-1.6314,-1.6323,-1.6315,-1.6346,-1.6337,-1.6346,-1.6344,-1.6371,-1.6369,-1.6457,-1.6468,-1.6381,-1.6382,-1.6383,0,-1.6345,-1.6361,-1.6353,-1.636,-1.6358,-1.6369,-1.6373,-1.6354,-1.636,-1.6359,-1.6372,-1.638,-1.6386,-1.6405,-1.6395,-1.6402,-1.6394,-1.6424,-1.6395,-1.64,-1.6395,-1.6395,-1.6397,-1.6431,-1.6432,-1.6433,-1.6433,0,-1.642,-1.6412,-1.6419,-1.6424,-1.643,-1.6433,-1.6434,-1.6441,-1.6421,-1.6428,-1.6439,-1.6443,-1.6453,-1.6462,-1.6466,-1.6463,-1.6446,-1.6442,-1.6449,-1.6455,-1.6461,-1.6459,-1.6364,-1.6441,-1.644,-1.644,-1.6439,-1.6439,-1.6476,-1.649,-1.6486,-1.6495,-1.6494,-1.6495,-1.6506,-1.6498,-1.6506,-1.6512,-1.65,-1.6514,-1.6511,-1.6515,-1.6514,-1.6525,-1.6512,-1.6521,-1.6523,-1.6526,-1.653,-1.6458,-1.6526,-1.6525,-1.6525,-1.6525,-1.6525,0,-1.655,-1.6546,-1.6555,-1.6557,-1.6564,-1.6545,-1.6546,-1.6553,-1.6565,-1.6564,-1.657,-1.6582,-1.6591,-1.6582,-1.6588,-1.6599,-1.6591,-1.6601,-1.6601,-1.6601,-1.6542,-1.6536,-1.6608,-1.6608,-1.6608,-1.6608,-1.6608,-1.6608,-1.659,-1.6611,-1.6603,-1.6623,-1.6619,-1.6632,-1.6634,-1.6635,-1.6634,-1.6649,-1.6655,-1.6649,-1.6645,-1.6651,-1.6658,-1.6655,-1.6659,-1.6673,-1.6667,-1.6613,-1.6605,-1.6597,-1.6591,-1.6674,-1.6674,-1.6725,-1.6726,-1.6726]},{"header":{"parameterUnit":"m.s-1","parameterCategory":1,"la1":30.2991,"la2":30.254,"lo1":-89.0895,"lo2":-89.0444,"dy":0.0017,"dx":0.0017,"nx":28,"ny":28,"refTime":"2024-12-02T03:00:00:Z","depth":0,"parameterNumber":3,"parameterNumberName":"V-component_of_WINDS"},"data":[0,0,0,0,0,0,0,0,0,0,0,0,0,0,0,0,0,0,0,0,0,0,0,0,0,0,0,0,0,0,0,0,0,0,0,0,0,0,0,0,0,0,0,0,0,0,0,0,0,0,0,0,0,0,0,0,0,0,-3.6666,-3.6667,0,-3.6721,-3.6721,-3.6722,-3.671,-3.6709,-3.6708,-3.6707,-3.676,-3.6762,-3.6764,0,0,0,0,0,0,0,0,0,0,0,0,0,-3.655,-3.6552,-3.6666,-3.6667,-3.6668,-3.6721,-3.6721,-3.6722,-3.671,-3.6709,-3.6708,-3.6707,-3.6759,-3.6762,-3.6764,0,0,0,0,0,0,0,0,0,0,0,0,0,-3.6602,-3.6553,-3.6666,-3.6668,-3.6669,-3.6721,-3.6721,-3.6722,-3.6711,-3.6709,-3.6708,-3.6706,-3.6758,-3.6761,-3.6765,-3.6816,0,0,-3.6775,-3.6777,0,0,0,0,0,0,0,0,-3.6599,-3.6606,-3.6667,-3.6668,-3.6669,-3.6707,-3.6699,-3.6754,-3.6711,-3.6695,-3.6707,-3.6705,-3.6743,-3.6748,-3.6761,-3.6819,-3.6821,-3.6776,-3.6778,-3.6779,-3.678,0,0,0,0,0,0,0,-3.6595,-3.6604,-3.6688,-3.6668,-3.6669,-3.6666,-3.6671,-3.671,-3.6727,-3.6696,-3.6695,-3.6702,-3.6743,-3.6758,-3.6762,-3.6822,-3.6776,-3.6779,-3.6781,-3.6782,-3.6925,-3.6927,0,0,0,0,0,0,-3.6591,-3.6601,-3.6686,-3.6689,-3.663,-3.6669,-3.6675,-3.6696,-3.6726,-3.6729,-3.6703,-3.6701,-3.6753,-3.6758,-3.6764,-3.6827,-3.6779,-3.6783,-3.6785,-3.6924,-3.6926,-3.6928,0,0,0,0,0,0,-3.6589,-3.6599,-3.6684,-3.6645,-3.6656,-3.6673,-3.6696,-3.6698,-3.6713,-3.6732,-3.6734,-3.6715,-3.6752,-3.6759,-3.6804,-3.6829,-3.6784,-3.6787,-3.6922,-3.6924,-3.6927,-3.6954,0,0,0,0,0,0,-3.6586,-3.6598,-3.6619,-3.6646,-3.6658,-3.6724,-3.6698,-3.6701,-3.6719,-3.6717,-3.6744,-3.6746,-3.6751,-3.6799,-3.6807,-3.6833,-3.679,-3.692,-3.6923,-3.6926,-3.6951,-3.6957,-3.6962,0,0,0,0,0,-3.6581,-3.6623,-3.662,-3.663,-3.6684,-3.6725,-3.6732,-3.6737,-3.6721,-3.6742,-3.6754,-3.6746,-3.6825,-3.6803,-3.6813,-3.684,-3.6918,-3.6922,-3.6926,-3.6948,-3.6956,-3.6962,0,0,0,0,0,0,-3.6597,-3.6627,-3.6623,-3.6675,-3.6698,-3.6723,-3.6749,-3.6745,-3.6772,-3.6769,-3.6773,-3.6779,-3.6825,-3.6837,-3.6813,-3.6892,-3.6869,-3.6875,-3.6883,-3.689,-3.6896,-3.6892,-3.6793,0,0,0,0,0,-3.6607,-3.6639,-3.6663,-3.6706,-3.6718,-3.6732,-3.675,-3.6752,-3.6776,-3.6785,-3.68,-3.6822,-3.6852,-3.6872,-3.69,-3.6952,-3.6958,-3.6976,-3.6981,-3.6986,-3.6991,-3.7021,-3.7029,-3.694,-3.694,-3.694,0,0,-3.6627,-3.6647,-3.6667,-3.671,-3.6728,-3.6761,-3.674,-3.6775,-3.6799,-3.679,-3.6834,-3.6846,-3.687,-3.692,-3.6942,-3.6931,-3.7017,-3.6991,-3.6995,-3.6997,-3.7025,-3.7034,-3.7041,-3.6943,-3.6942,-3.6942,0,0,-3.6681,-3.6699,-3.6738,-3.6757,-3.6785,-3.6794,-3.6803,-3.6829,-3.6837,-3.6882,-3.6876,-3.6904,-3.6955,-3.6973,-3.6989,-3.7051,-3.7044,-3.706,-3.709,-3.7119,-3.7126,-3.7132,-3.7155,-3.7163,-3.7065,-3.7065,-3.7065,0,-3.6702,-3.6752,-3.6758,-3.6795,-3.6814,-3.6808,-3.6847,-3.6865,-3.69,-3.6913,-3.69,-3.6965,-3.6981,-3.7035,-3.705,-3.7063,-3.7074,-3.7057,-3.7124,-3.7131,-3.7136,-3.7158,-3.7167,-3.7067,-3.7066,-3.7066,-3.7066,0,-3.6777,-3.6812,-3.684,-3.6876,-3.6898,-3.6936,-3.6947,-3.6968,-3.6969,-3.6979,-3.7024,-3.7043,-3.7076,-3.7089,-3.7089,-3.7143,-3.7135,-3.7123,-3.71,-3.7147,-3.7167,-3.7175,-3.7069,-3.7068,-3.7068,-3.7067,0,0,-3.6842,-3.6882,-3.6892,-3.6909,-3.694,-3.6967,-3.7004,-3.7037,-3.7056,-3.708,-3.7111,-3.7155,-3.7145,-3.7163,-3.7165,-3.719,-3.7239,-3.7175,-3.7176,-3.7187,-3.73,-3.7309,-3.7319,-3.7234,-3.7236,-3.7237,-3.7298,0,-3.69,-3.6967,-3.6974,-3.7033,-3.7066,-3.7061,-3.7093,-3.7115,-3.7126,-3.7154,-3.7165,-3.7196,-3.718,-3.7191,-3.7215,-3.7228,-3.7261,-3.7223,-3.7263,-3.7265,-3.7258,-3.733,-3.7339,-3.7396,-3.7306,-3.7308,-3.7308,0,-3.6975,-3.7004,-3.7068,-3.7095,-3.7109,-3.7138,-3.717,-3.7197,-3.7221,-3.7227,-3.7248,-3.7247,-3.7285,-3.726,-3.7312,-3.7286,-3.7302,-3.7311,-3.7313,-3.7318,-3.729,-3.7337,-3.7414,-3.7423,-3.7321,-3.732,-3.7319,0,-3.7018,-3.7072,-3.7118,-3.7132,-3.7164,-3.7185,-3.7199,-3.7223,-3.7243,-3.727,-3.7283,-3.7313,-3.733,-3.7353,-3.736,-3.7342,-3.7412,-3.7388,-3.7418,-3.7418,-3.7434,-3.7433,-3.7516,-3.7443,-3.7443,-3.7443,-3.7443,0,-3.7082,-3.7121,-3.7137,-3.7165,-3.7209,-3.7216,-3.7259,-3.7272,-3.7293,-3.7322,-3.7319,-3.7347,-3.7354,-3.7383,-3.7388,-3.7431,-3.7438,-3.7444,-3.7445,-3.7445,-3.7444,-3.7456,-3.7453,-3.7445,-3.7445,-3.7444,-3.7444,0,-3.7137,-3.7149,-3.7199,-3.7226,-3.7234,-3.7265,-3.7288,-3.7315,-3.7325,-3.7362,-3.7372,-3.7387,-3.7421,-3.743,-3.747,-3.7474,-3.7525,-3.7522,-3.7517,-3.7517,-3.7547,-3.7545,-3.7642,-3.7655,-3.7573,-3.7573,-3.7574,0,-3.7177,-3.7208,-3.7239,-3.726,-3.7275,-3.7308,-3.7329,-3.7336,-3.7358,-3.7389,-3.7412,-3.7446,-3.7474,-3.7528,-3.7542,-3.7573,-3.7571,-3.7603,-3.7576,-3.7575,-3.7573,-3.7571,-3.7575,-3.7609,-3.7609,-3.761,-3.7611,0,-3.7248,-3.7253,-3.7284,-3.7317,-3.7343,-3.7369,-3.7394,-3.7411,-3.7422,-3.7446,-3.7482,-3.7503,-3.7545,-3.7579,-3.761,-3.7624,-3.7619,-3.7619,-3.7628,-3.7629,-3.7625,-3.7628,-3.7532,-3.7617,-3.7616,-3.7616,-3.7616,-3.7615,-3.7298,-3.7325,-3.7352,-3.7386,-3.7406,-3.743,-3.7457,-3.7471,-3.7501,-3.7537,-3.7539,-3.7578,-3.7602,-3.7644,-3.766,-3.7689,-3.768,-3.7692,-3.7696,-3.7699,-3.7702,-3.762,-3.7695,-3.7695,-3.7695,-3.7694,-3.7694,0,-3.7369,-3.7386,-3.7418,-3.7454,-3.7482,-3.7476,-3.7504,-3.7526,-3.7561,-3.7585,-3.7612,-3.7654,-3.7686,-3.7704,-3.7736,-3.7757,-3.7756,-3.7765,-3.7764,-3.7768,-3.7708,-3.7698,-3.7766,-3.7766,-3.7766,-3.7766,-3.7766,-3.7766,-3.741,-3.7456,-3.7464,-3.752,-3.7536,-3.7576,-3.7592,-3.7614,-3.7633,-3.768,-3.7708,-3.7719,-3.774,-3.7774,-3.7804,-3.7808,-3.782,-3.7831,-3.7834,-3.7779,-3.7772,-3.7765,-3.7755,-3.7834,-3.7834,-3.7891,-3.7892,-3.7892]}]]